Weather History for KLCH - June, 2012

Change the Weather History Date:

Thursday, June 28, 2012

  Actual Average Record
Temperature  
Mean Temperature 85 °F 82 °F  
Max Temperature 94 °F 90 °F 102 °F (1914)
Min Temperature 76 °F 74 °F 62 °F (1974)
Degree Days  
Heating Degree Days 0 0  
Month to date heating degree days 0 0  
Since 1 June heating degree days 0 0  
Since 1 July heating degree days 954 1490  
Cooling Degree Days 20 17  
Month to date cooling degree days 485 445  
Year to date cooling degree days 1374 983  
Since 1 June cooling degree days 485 445  
Growing Degree Days 34 (Base 50)    
Moisture  
Dew Point 76 °F    
Average Humidity 76    
Maximum Humidity 100    
Minimum Humidity 52    
Precipitation  
Precipitation 0.00 in 0.24 in 2.95 in (1989)
Month to date precipitation 3.60 6.38  
Year to date precipitation 35.47 27.26  
Snow  
Snow 0.00 in 0.00 in 0.00 in ()
Month to date snowfall 0.0 0.0  
Since 1 June snowfall 0.0 0.0  
Since 1 July snowfall 0.0 0.1  
Snow Depth 0.00 in    
Sea Level Pressure  
Sea Level Pressure 30.03 in    
Wind  
Wind Speed 5 mph (SSE)    
Max Wind Speed 14 mph    
Max Gust Speed 18 mph    
Visibility 6 miles    
Events      
T = Trace of Precipitation, MM = Missing Value Source: NWS Daily Summary

Daily Weather History Graph

Daily Weather History Graph

Search for Another Location

Airport or City:

Trip Planner

Search our weather history database for the weather conditions in past years. The results will help you decide how hot, cold, wet, or windy it might be!

Date:

Astronomy

Jun. 28, 2012 Rise Set
Actual Time 6:14 AM CDT 8:18 PM CDT
Civil Twilight 5:46 AM CDT 8:45 PM CDT
Nautical Twilight 5:13 AM CDT 9:19 PM CDT
Astronomical Twilight 4:37 AM CDT 9:54 PM CDT
Moon 3:04 PM CDT (6/28) 1:32 AM CDT (6/28)
Length of Visible Light 14h 59m
Length of Day
14h 04m
Waxing Gibbous, 67% of the Moon is Illuminated
Jun 28
Waxing Gibbous
Jul 3
Full
Jul 10
Last Quarter
Jul 18
New
Jul 26
First Quarter

Hourly Weather History & Observations

Time (CDT) Temp. Heat Index Dew Point Humidity Pressure Visibility Wind Dir Wind Speed Gust Speed Precip Events Conditions
12:16 AM 78.8 °F - 75.2 °F 89% 29.97 in 1.5 mi Calm Calm - N/A   Clear
12:28 AM 78.8 °F - 77.0 °F 94% 29.97 in 3.0 mi Calm Calm - N/A   Clear
12:39 AM 78.8 °F - 77.0 °F 94% 29.97 in 1.8 mi SE 3.5 mph - N/A   Clear
12:53 AM 78.1 °F - 77.0 °F 96% 29.99 in 1.8 mi SE 4.6 mph - N/A   Clear
1:09 AM 77.0 °F - 77.0 °F 100% 29.96 in 2.0 mi SE 3.5 mph - N/A   Clear
1:25 AM 78.8 °F - 77.0 °F 94% 29.96 in 3.0 mi SSE 3.5 mph - N/A   Clear
1:34 AM 77.0 °F - 77.0 °F 100% 29.96 in 1.8 mi Calm Calm - N/A   Clear
1:53 AM 78.1 °F - 77.0 °F 96% 29.99 in 2.0 mi South 3.5 mph - N/A   Clear
2:05 AM 78.8 °F - 78.8 °F 100% 29.97 in - South 3.5 mph - N/A   Clear
2:53 AM 79.0 °F - 78.1 °F 97% 29.99 in 4.0 mi South 3.5 mph - N/A   Clear
3:16 AM 78.8 °F - 78.8 °F 100% 29.97 in 2.5 mi SSE 4.6 mph - N/A   Clear
3:29 AM 78.8 °F - 78.8 °F 100% 29.97 in 5.0 mi SSE 3.5 mph - N/A   Clear
3:53 AM 78.1 °F - 77.0 °F 96% 30.00 in 3.0 mi East 3.5 mph - N/A   Clear
4:25 AM 77.0 °F - 77.0 °F 100% 29.99 in 2.5 mi SE 4.6 mph - N/A   Clear
4:32 AM 77.0 °F - 75.2 °F 94% 29.99 in 4.0 mi SE 4.6 mph - N/A   Clear
4:53 AM 77.0 °F - 75.9 °F 96% 30.01 in 4.0 mi SE 3.5 mph - N/A   Clear
5:15 AM 77.0 °F - 75.2 °F 94% 29.99 in 2.5 mi SE 4.6 mph - N/A   Clear
5:38 AM 77.0 °F - 77.0 °F 100% 30.00 in 1.5 mi SE 4.6 mph - N/A   Clear
5:44 AM 78.8 °F - 77.0 °F 94% 30.00 in 3.0 mi SE 4.6 mph - N/A   Clear
5:53 AM 78.1 °F - 77.0 °F 96% 30.03 in 2.0 mi SE 4.6 mph - N/A   Clear
6:53 AM 78.1 °F - 77.0 °F 96% 30.05 in 2.0 mi Calm Calm - N/A   Clear
7:00 AM 78.8 °F - 77.0 °F 94% 30.03 in 3.0 mi ESE 3.5 mph - N/A   Partly Cloudy
7:53 AM 81.0 °F 89.2 °F 79.0 °F 94% 30.06 in 5.0 mi SE 3.5 mph - N/A   Clear
8:53 AM 84.9 °F 97.5 °F 79.0 °F 82% 30.08 in - South 4.6 mph - N/A   Clear
9:53 AM 88.0 °F 100.2 °F 77.0 °F 70% 30.09 in 10.0 mi South 6.9 mph - N/A   Clear
10:53 AM 91.0 °F 101.6 °F 75.0 °F 59% 30.09 in 10.0 mi SSE 9.2 mph - N/A   Clear
11:53 AM 91.0 °F 101.6 °F 75.0 °F 59% 30.09 in 10.0 mi South 9.2 mph - N/A   Partly Cloudy
12:53 PM 93.0 °F 103.2 °F 73.9 °F 54% 30.09 in 10.0 mi South 8.1 mph - N/A   Clear
1:53 PM 93.0 °F 101.9 °F 73.0 °F 52% 30.08 in 10.0 mi South 5.8 mph - N/A   Clear
2:53 PM 93.0 °F 103.2 °F 73.9 °F 54% 30.08 in 10.0 mi South 6.9 mph - N/A   Scattered Clouds
3:53 PM 93.0 °F 101.9 °F 73.0 °F 52% 30.06 in 10.0 mi South 9.2 mph - N/A   Partly Cloudy
4:53 PM 91.9 °F 101.3 °F 73.9 °F 55% 30.04 in 10.0 mi SSW 8.1 mph - N/A   Clear
5:53 PM 90.0 °F 99.0 °F 73.9 °F 59% 30.04 in 10.0 mi SSW 8.1 mph - N/A   Clear
6:53 PM 87.1 °F 95.4 °F 73.9 °F 65% 30.03 in 10.0 mi SSW 6.9 mph - N/A   Clear
7:53 PM 84.9 °F 93.3 °F 75.0 °F 72% 30.04 in 10.0 mi SSW 3.5 mph - N/A   Clear
8:53 PM 82.0 °F 89.4 °F 75.9 °F 82% 30.04 in 10.0 mi South 3.5 mph - N/A   Clear
9:53 PM 81.0 °F 87.3 °F 75.9 °F 85% 30.04 in 10.0 mi Calm Calm - N/A   Clear
10:53 PM 80.1 °F 85.4 °F 75.9 °F 87% 30.06 in 10.0 mi Calm Calm - N/A   Clear
11:53 PM 79.0 °F - 75.9 °F 90% 30.05 in 9.0 mi Calm Calm - N/A   Clear